Location: *
(35.2348°S, 91.3916°E)
Time: 03:57:05
(UTC+00:00)

CZ-4B R/B - Pass Details

Date: 23 October 2019
Orbit: 487 x 653 km, 97.8° (Epoch: 16 November)

Event Time Altitude Azimuth Distance (km) Brightness Sun altitude
Rises 21:16:12 0° 32° (NNE) 2,553 6.2 -20.5°
Reaches altitude 10° 21:18:21 10° 40° (NE) 1,685 5.4 -20.2°
Maximum altitude 21:21:40 35° 107° (ESE) 823 4.3 -19.6°
Drops below altitude 10° 21:25:05 10° 174° (S) 1,745 5.8 -19.0°
Sets 21:27:20 0° 182° (S) 2,661 6.7 -18.6°
